User: anonymous   Login
Location: Newark
(49.3000°N, 9.4667°E)
Time: 16:28:04
(UTC+00:00)
Language:

Courier 1B - Orbit

View from above orbital plane
View from above orbital plane
View from above satellite
View from above satellite

Ground track
Ground track

The orbit data is extracted from the following two-line orbital elements,

1    58U 60013A   19138.91014286  .00000085  00000-0  41400-5 0  9993
2    58  28.3280 301.3176 0164981  34.5137 326.5998 13.46317303885803
Epoch (UTC): 18 May 2019 21:50:36
Eccentricity: 0.0164981
inclination: 28.3280°
perigee height: 962 km
apogee height: 1209 km
right ascension of ascending node: 301.3176°
argument of perigee: 34.5137°
revolutions per day: 13.46317303
mean anomaly at epoch: 326.5998°
orbit number at epoch: 88580

The dashed part of the orbit path shows where the satellite is in the earth's shadow,  

DLR